Location: Newark
(13.6797°N, 8.5297°E)
Time: 10:57:16
(UTC+00:00)

Courier 1B Rocket - Pass Details

Date: 21 January 2020
Orbit: 920 x 1202 km, 28.2° (Epoch: 25 February)

Event Time Altitude Azimuth Distance (km) Brightness Sun altitude
Rises 20:35:51 0° 275° (W) 3,562 8.6 -46.3°
Reaches altitude 10° 20:38:57 10° 261° (W) 2,641 7.8 -47.0°
Enters shadow 20:40:15 15° 252° (WSW) 2,327 7.4 -47.3°
